Location: La B�doule
(43.2468°N, 5.5934°E)
Time: 01:16:12
(UTC+00:00)

Daily predictions for brighter satellites

Satellite Brightness Start Highest point End
(mag) Time Altitude Azimuth Time Altitude Azimuth Time Altitude Azimuth
Cosmos 1570 Rocket 4.0 00:04:53 59° SSE 00:05:39 68° ESE 00:10:55 10° NNE
Cosmos 1763 Rocket 3.4 00:05:58 59° SW 00:06:48 73° WNW 00:11:53 10° NNE
Cosmos 1709 Rocket 4.0 00:05:05 47° SSE 00:06:48 68° E 00:12:57 10° NNE
STARLINK-1312 4.3 00:09:13 41° ENE 00:09:13 41° ENE 00:11:48 10° ENE
Cosmos 2227 Rocket 2.4 00:04:06 10° NW 00:09:34 50° WSW 00:10:10 48° SW
Cosmos 2084 Rocket 4.0 00:09:08 10° NNW 00:13:33 57° NE 00:14:58 38° ESE
SL-16 R/B 4.0 00:10:23 11° ESE 00:15:29 31° ENE 00:20:48 10° N
Cosmos 1758 Rocket 3.5 00:15:28 70° ESE 00:15:41 72° E 00:20:06 10° NNE
STARLINK-75 4.3 00:18:02 38° NNE 00:18:02 38° NNE 00:20:15 10° NE
STARLINK-1283 3.6 00:20:03 80° NE 00:20:03 80° NE 00:23:58 10° NE
STARLINK-80 3.7 00:21:07 62° NE 00:21:07 62° NE 00:24:20 10° NE
Nadezhda 1 Rocket 4.4 00:17:47 10° NNW 00:23:48 52° W 00:25:28 41° SW
CZ-4 R/B 3.9 00:19:29 10° N 00:24:09 63° WNW 00:24:50 55° WSW
SL-16 R/B 3.8 00:22:44 19° ESE 00:24:22 21° E 00:28:32 10° NE
Cosmos 2208 Rocket 3.9 00:23:37 59° S 00:24:38 82° ESE 00:30:01 10° NNE
STARLINK-1255 4.5 00:25:54 33° NE 00:25:54 33° NE 00:27:49 10° NE
STARLINK-22 4.2 00:26:16 40° NE 00:26:16 40° NE 00:28:29 10° NE
STARLINK-1297 3.8 00:26:32 55° NE 00:26:32 55° NE 00:29:26 10° NE
Cosmos 2285 Rocket 3.9 00:23:16 10° NNW 00:29:38 84° WSW 00:31:55 43° SSE
USA 81 4.0 00:30:17 56° SSW 00:31:22 79° W 00:36:42 10° N
CZ-2D R/B 3.4 00:28:44 10° NE 00:33:14 29° E 00:35:02 24° SE
USA 215 3.1 00:28:06 16° SE 00:33:33 83° SW 00:40:09 10° NW
Cosmos-2242 2.8 00:29:47 10° N 00:34:03 83° E 00:34:23 75° SSE
Cosmos 1953 Rocket 3.7 00:33:32 56° SE 00:34:04 61° E 00:38:25 10° NNE
Meteor 2-10 Rocket 3.5 00:29:31 10° NNW 00:34:33 61° W 00:35:16 55° SW
Meteor 1-21 Rocket 4.5 00:34:27 44° SW 00:36:00 58° WNW 00:41:43 10° N
STARLINK-42 4.2 00:36:26 38° N 00:36:26 38° N 00:39:04 10° NE
BREEZE-M R/B 4.4 00:30:20 10° W 00:36:22 39° NNW 00:39:39 10° NE
STARLINK-1029 4.4 00:39:04 34° ENE 00:39:04 34° ENE 00:41:00 10° ENE
STARLINK-34 4.2 00:40:01 37° NE 00:40:01 37° NE 00:42:03 10° NE
STARLINK-41 4.2 00:40:11 37° N 00:40:11 37° N 00:42:44 10° NE
GP-B 3.8 00:37:37 10° NNE 00:41:54 45° E 00:42:59 37° SE
STARLINK-1272 3.6 00:42:02 60° NNW 00:42:02 60° NNW 00:45:25 10° NE
Cosmos 540 Rocket 3.5 00:41:07 52° SW 00:42:17 71° WNW 00:47:25 10° NNE
STARLINK-62 4.1 00:43:45 40° NE 00:43:45 40° NE 00:45:53 10° NE
Cosmos 2360 Rocket 4.4 00:44:15 10° SE 00:46:50 13° E 00:49:26 10° ENE
STARLINK-1307 3.6 00:46:48 57° NW 00:47:04 59° NNW 00:50:45 10° NE
Helios 1B rocket 3.5 00:46:08 10° N 00:49:52 34° WNW 00:50:24 32° W
STARLINK-1290 3.8 00:50:11 52° WNW 00:50:35 56° NNW 00:54:15 10° NE
STARLINK-1276 4.4 00:52:19 38° ESE 00:52:19 38° ESE 00:55:48 10° ENE
Cosmos 1980 Rocket 2.3 00:51:50 42° SW 00:53:41 67° WNW 00:59:20 10° NNE
Cosmos 2074 Rocket 4.3 00:51:22 33° SSE 00:54:11 63° E 01:00:23 10° NNE
STARLINK-1305 4.2 00:57:04 43° SE 00:57:04 43° SE 01:00:47 10° ENE
STARLINK-1306 4.1 00:57:24 46° SE 00:57:24 46° SE 01:01:19 10° ENE
STARLINK-1317 4.2 00:56:33 38° WNW 00:57:35 49° NNW 01:01:24 10° NE
Meteor 1-29 4.1 00:55:23 10° N 00:58:12 32° WNW 00:58:12 32° WNW
Cosmos 1328 4.2 00:59:35 46° W 00:59:47 47° WNW 01:03:39 10° N
Cosmos 1455 3.5 00:57:22 10° NNW 01:00:05 27° WNW 01:00:05 27° WNW
STARLINK-1274 4.1 01:00:56 38° WNW 01:01:37 43° NNW 01:05:03 10° NE
STARLINK-1262 4.0 01:01:53 47° SE 01:01:53 47° SE 01:05:50 10° ENE
STARLINK-1291 4.3 01:04:15 33° WNW 01:05:20 43° NNW 01:08:56 10° NE
Meteor 1-11 4.1 01:03:54 43° SSW 01:05:51 84° W 01:11:28 10° N
Cosmos 1703 4.1 01:05:53 35° W 01:06:06 35° WNW 01:09:44 10° N
STARLINK-1300 3.8 01:06:40 52° SE 01:06:47 52° SE 01:10:49 10° ENE
STARLINK-1264 4.4 01:07:26 31° WNW 01:08:40 42° NNW 01:12:14 10° NE
Lacrosse 4 Rocket 3.4 01:05:43 10° WNW 01:07:20 16° W 01:07:20 16° W
Cosmos 1825 Rocket 4.4 01:08:39 34° W 01:09:17 36° WNW 01:13:19 10° N
ADEOS II 3.8 01:06:57 10° NE 01:11:17 25° E 01:14:40 14° SE
STARLINK-1295 3.7 01:11:26 55° SSE 01:11:44 57° SE 01:15:48 10° ENE
Cosmos 2263 Rocket 2.3 01:06:11 10° NNW 01:11:48 74° ENE 01:15:58 18° SSE
STARLINK-1267 4.5 01:10:39 28° WNW 01:12:02 40° NNW 01:15:35 10° NE
NOSS 2-1 (C) 3.1 01:12:05 57° ESE 01:12:05 57° ESE 01:15:29 10° NE
Timation 1 Rocket 4.2 01:07:23 10° NNW 01:13:20 72° WSW 01:16:19 31° S
UNK 3.8 01:11:40 33° SSE 01:13:41 72° ENE 01:18:16 10° N
STARLINK-64 3.1 01:14:12 72° W 01:14:29 79° NW 01:18:04 10° NE
SL-4 R/B 2.8 01:10:06 10° NW 01:14:55 63° NNE 01:19:34 10° ESE
Cosmos 2297 Rocket 4.2 01:13:08 10° WNW 01:14:46 12° W 01:14:46 12° W
AQUA 4.5 01:11:47 10° NNE 01:16:24 48° E 01:18:24 30° SSE
STARLINK-1287 3.6 01:16:13 57° S 01:16:42 63° SE 01:20:48 10° ENE
NOSS 2-1 (D) 2.9 01:16:50 66° SE 01:16:56 66° ESE 01:20:25 10° NE
USA 229 DEB 4.0 01:10:02 10° NW 01:17:20 76° NE 01:24:59 10° SE
USA 229 4.0 01:10:08 10° NW 01:17:27 76° NE 01:25:05 10° SE
NOSS 3-1 (C) 4.1 01:10:38 10° NW 01:18:16 84° NE 01:27:00 10° SE
Cosmos 2184 Rocket 3.9 01:16:26 34° S 01:19:17 88° W 01:25:30 10° N
Cosmos 372 Rocket 4.2 01:14:34 10° NNW 01:19:32 49° WSW 01:20:47 41° SW
NPP 3.8 01:15:01 10° NNE 01:20:25 68° ESE 01:22:54 32° S
CZ-4C R/B 4.1 01:17:09 10° W 01:21:27 24° NNW 01:26:22 10° NNE
BREEZE-M DEB (TANK) 3.0 01:23:13 37° N 01:23:13 37° N 01:25:16 10° NE
Cosmos 1892 4.0 01:21:53 24° SE 01:23:21 33° E 01:26:45 10° NNE
STARLINK-1299 3.6 01:24:06 50° SW 01:25:09 85° SE 01:29:26 10° NE
NOSS 3-1 (A) 4.5 01:18:52 10° NNW 01:26:23 67° NE 01:35:01 10° SE
STARLINK-1302 3.5 01:25:46 53° SSW 01:26:37 75° SE 01:30:46 10° ENE
BREEZE-M DEB (TANK) 3.7 01:25:51 10° NW 01:27:52 21° N 01:29:51 10° ENE
Cosmos 1869 3.5 01:27:31 10° N 01:31:22 63° E 01:33:00 32° SSE
STARLINK-1273 3.5 01:30:32 49° SW 01:31:36 82° SE 01:35:45 10° NE
Cosmos 2150 Rocket 4.1 01:27:11 10° NNW 01:32:11 52° WSW 01:33:54 36° SSW
Cosmos 2322 Rocket 2.4 01:29:42 31° S 01:32:21 64° ESE 01:37:55 10° NNE
STARLINK-1288 3.5 01:35:19 44° SW 01:36:34 88° SE 01:40:44 10° NE
STARLINK-61 3.4 01:35:51 50° SSW 01:36:40 67° SE 01:40:34 10° ENE
STARLINK-54 4.4 01:40:39 28° SE 01:41:00 29° SE 01:44:11 10° ENE
STARLINK-1308 3.6 01:40:08 39° WSW 01:41:36 84° NNW 01:45:45 10° NE
Cosmos 1076 Rocket 3.9 01:39:51 27° SSE 01:42:01 59° E 01:46:20 10° NNE
Resurs 1-4 Rocket 2.2 01:37:03 10° N 01:42:20 67° WNW 01:44:54 31° SSW
Cosmos 1400 Rocket 4.0 01:40:50 10° NNW 01:44:23 28° W 01:44:46 27° WSW
Cosmos 1125 Rocket 3.5 01:40:43 10° NNW 01:45:52 64° WSW 01:48:54 25° S
Meteor 2-17 Rocket 4.4 01:42:53 28° SSW 01:46:14 73° W 01:52:22 10° N
STARLINK-79 4.4 01:46:45 28° SSE 01:47:20 30° SE 01:50:33 10° ENE
STARLINK-52 4.3 01:45:36 10° NW 01:48:41 41° NNE 01:51:45 10° ESE
STARLINK-78 4.3 01:48:20 29° SSE 01:48:58 31° SE 01:52:13 10° ENE
STARLINK-57 4.2 01:49:58 31° SSE 01:50:39 34° SE 01:53:58 10° ENE
Cosmos 1408 3.6 01:49:31 21° SSE 01:51:31 42° E 01:55:01 10° NNE
STARLINK-1304 3.7 01:49:41 31° WSW 01:51:32 73° NNW 01:55:41 10° NE
STARLINK-49 4.2 01:51:26 30° SSE 01:52:10 33° SE 01:55:28 10° ENE
Cosmos 2154 Rocket 4.0 01:49:52 26° SSW 01:53:37 75° W 01:59:52 10° N
STARLINK-27 4.2 01:53:02 30° SSE 01:53:50 35° SE 01:57:10 10° ENE
STARLINK-74 4.2 01:54:35 31° SSE 01:55:26 36° SE 01:58:48 10° ENE
GEOS 3 Rocket 3.6 01:51:02 10° SE 01:56:13 85° NE 02:01:32 10° NW
STARLINK-39 4.1 01:56:10 31° S 01:57:04 37° SE 02:00:27 10° ENE
STARLINK-1278 4.1 01:55:21 24° WSW 01:57:44 60° NNW 02:01:57 10° NE
Cosmos 1825 3.6 01:55:27 14° SSE 01:58:08 33° E 02:01:33 10° NNE
STARLINK-31 4.0 01:57:45 32° S 01:58:43 39° SE 02:02:07 10° ENE
SL-16 R/B 2.8 01:55:29 24° SSW 01:58:52 47° W 02:04:49 10° NNW
STARLINK-1280 4.1 01:57:08 23° WSW 01:59:35 58° NNW 02:03:48 10° NE
STARLINK-69 3.8 01:59:20 34° S 02:00:21 44° SE 02:03:48 10° ENE
SL-08 R/B 4.1 01:56:22 10° SSE 02:00:49 51° ENE 02:05:18 10° N
STARLINK-21 3.9 02:00:55 32° S 02:01:59 42° SE 02:05:26 10° ENE
Iridium 2 4.1 01:58:26 10° NNW 02:02:02 43° W 02:03:12 32° SW
STARLINK-45 3.7 02:02:35 33° S 02:03:45 48° SE 02:07:16 10° ENE
Meteor 2-2 Rocket 4.4 01:58:16 10° NNW 02:04:15 65° W 02:08:42 18° S
IRS-P3 4.3 02:00:30 10° NNE 02:05:50 69° ESE 02:09:51 18° S
Cosmos 1844 Rocket 3.8 02:00:54 10° NNW 02:06:16 45° ENE 02:11:35 10° SE
NOSS 2-1 (E) 3.9 02:04:58 25° W 02:06:26 40° NW 02:09:53 10° NNE
STARLINK-76 3.7 02:05:36 32° S 02:06:52 47° SE 02:10:22 10° ENE
STARLINK-70 3.7 02:05:59 32° SSW 02:07:18 50° SE 02:10:53 10° ENE
SL-16 R/B 2.5 02:04:36 24° SW 02:07:59 57° WNW 02:13:36 10° NNE
STARLINK-1286 4.1 02:05:37 21° WSW 02:08:14 55° NNW 02:12:20 10° NE
STARLINK-23 3.7 02:07:11 31° SSW 02:08:30 49° SE 02:12:01 10° ENE
STARLINK-1049 4.4 02:07:06 25° S 02:08:53 38° SE 02:12:45 10° ENE
STARLINK-32 3.6 02:08:37 31° SSW 02:09:56 50° SE 02:13:26 10° ENE
IRIDIUM 104 4.3 02:07:38 22° SSW 02:11:06 72° W 02:16:20 10° N
STARLINK-1281 4.1 02:08:48 20° WSW 02:11:28 54° NNW 02:15:33 10° NE
STARLINK-40 3.6 02:10:18 31° SSW 02:11:44 52° SE 02:15:16 10° ENE
STARLINK-44 3.5 02:11:49 30° SSW 02:13:18 54° SE 02:16:52 10° ENE
CZ-2D R/B 2.9 02:08:35 10° N 02:13:20 37° WNW 02:16:21 20° WSW
STARLINK-1051 4.3 02:11:51 24° SSW 02:13:49 42° SE 02:17:45 10° ENE
Cosmos 2221 3.2 02:10:19 10° NNW 02:14:20 37° W 02:16:17 24° SW
Cosmos 773 Rocket 4.3 02:11:02 17° S 02:14:58 62° ESE 02:20:12 10° NNE
STARLINK-37 3.4 02:13:33 30° SSW 02:15:07 61° SE 02:18:43 10° ENE
STARLINK-1310 4.3 02:13:35 18° W 02:16:28 50° NNW 02:20:32 10° NE
STARLINK-36 3.5 02:14:56 29° SSW 02:16:33 58° SE 02:20:07 10° ENE
STARLINK-60 3.2 02:13:34 10° WNW 02:16:37 43° SW 02:19:40 10° SSE
USA 215 4.3 02:15:22 20° SW 02:17:09 22° WSW 02:22:04 10° WNW
FALCON 9 DEB 4.2 02:14:38 10° NW 02:18:01 48° NNE 02:21:23 10° ESE
Nadezhda 3 Rocket 4.3 02:13:43 10° NNW 02:19:48 50° W 02:24:39 16° SSW
STARLINK-63 3.3 02:18:10 28° SW 02:19:54 66° SE 02:23:30 10° ENE
Cosmos 1315 Rocket 3.8 02:16:37 10° NNW 02:20:03 29° W 02:21:25 23° SW
IRIDIUM 114 4.5 02:16:46 20° SSW 02:20:16 59° W 02:25:26 10° N
BREEZE-M DEB (TANK)4.402:22:48SSE02:22:48SSE02:16:35WNW
STARLINK-35 3.3 02:19:32 27° SW 02:21:16 64° SE 02:24:49 10° ENE
STARLINK-1319 4.4 02:18:21 16° W 02:21:27 47° NNW 02:25:29 10° NE
STARLINK-51 3.3 02:21:14 26° SW 02:23:04 67° SE 02:26:40 10° ENE
CBERS-1 4.2 02:18:02 10° N 02:23:05 58° WNW 02:26:39 19° SW
STARLINK-1028 4.0 02:21:25 23° SSW 02:23:44 50° SE 02:27:46 10° ENE
Cosmos 2366 rocket 4.4 02:18:01 10° S 02:24:08 63° E 02:30:23 10° NNE
STARLINK-30 3.3 02:22:49 26° SW 02:24:44 70° SE 02:28:21 10° ENE
STARLINK-72 3.2 02:24:13 25° SW 02:26:07 72° SE 02:29:41 10° ENE
STARLINK-1277 4.5 02:23:08 14° W 02:26:28 44° NNW 02:30:27 10° NE
Shenzhou-11 Module 1.2 02:26:47 27° W 02:27:56 81° S 02:30:23 10° E
STARLINK-1021 3.9 02:26:14 22° SSW 02:28:44 55° SE 02:32:48 10° ENE
Cosmos 2058 3.7 02:27:00 21° SW 02:29:17 37° WNW 02:33:13 10° N
STARLINK-59 3.2 02:27:25 24° SW 02:29:28 80° SE 02:33:03 10° NE
Cosmos 2360 Rocket 2.2 02:25:44 18° SSW 02:30:00 85° WNW 02:35:40 10° NNE
STARLINK-1010 3.9 02:28:17 21° SW 02:30:59 61° SE 02:35:10 10° ENE
STARLINK-56 3.2 02:29:04 23° SW 02:31:14 79° SE 02:34:52 10° ENE
STARLINK-73 3.2 02:30:38 22° SW 02:32:51 82° SE 02:36:30 10° NE
STARLINK-1019 3.8 02:30:59 20° SW 02:33:39 61° SE 02:37:45 10° ENE
STARLINK-38 3.2 02:32:12 21° SW 02:34:29 85° SE 02:38:07 10° NE
STARLINK-65 3.2 02:33:46 21° SW 02:36:07 87° SE 02:39:46 10° NE
STARLINK-68 3.2 02:34:23 20° SW 02:36:49 86° NW 02:40:29 10° NE
STARLINK-53 3.2 02:35:24 20° SW 02:37:50 86° NW 02:41:29 10° NE
STARLINK-1012 3.7 02:35:47 19° SW 02:38:39 67° SE 02:42:45 10° ENE
Cosmos 1980 Rocket 4.4 02:36:15 10° WNW 02:38:50 13° NW 02:41:25 10° NNW
STARLINK-50 3.3 02:37:26 19° SW 02:40:06 89° SE 02:43:56 10° NE
SL-24 DEB 4.2 02:38:26 10° N 02:43:04 83° W 02:47:39 10° S
Cosmos 2333 Rocket 3.0 02:38:11 10° S 02:43:33 47° ESE 02:48:59 10° NE
STARLINK-71 3.5 02:41:45 17° WSW 02:44:51 83° NNW 02:48:54 10° NE
Meteor 1-28 Rocket 3.1 02:41:33 10° S 02:45:17 78° WSW 02:49:03 10° NNW
Landsat 5 4.4 02:42:12 10° SSE 02:46:37 56° ENE 02:50:59 10° N
Cosmos 2219 Rocket 3.0 02:42:20 10° S 02:47:40 48° ESE 02:53:01 10° NE
STARLINK-1026 3.6 02:45:20 16° SW 02:48:34 79° SE 02:52:43 10° ENE
Cosmos 2322 3.9 02:43:31 11° SSW 02:49:00 76° ESE 02:54:44 10° NNE
STARLINK-29 3.1 02:46:24 10° WNW 02:49:27 45° SW 02:52:30 10° SSE
Cosmos 1727 Rocket 4.3 02:44:15 10° N 02:50:26 70° E 02:56:34 10° SSE
ADEOS II 2.7 02:46:10 10° N 02:51:07 43° WNW 02:55:36 12° SW
Cosmos 864 Rocket 4.5 02:45:41 10° S 02:51:48 84° W 02:58:00 10° N
STARLINK-1013 3.6 02:50:08 15° SW 02:53:34 86° SE 02:57:43 10° NE
SL-4 R/B 3.0 02:50:14 10° WNW 02:54:26 31° SW 02:58:27 10° SSE
IDEFIX/ARIANE 42P 2.9 02:49:31 10° NNE 02:54:48 70° ESE 03:00:00 10° S
ERS-2 2.1 02:51:16 10° S 02:54:54 70° WSW 02:58:35 10° NNW
Cosmos 2263 Rocket 3.8 02:51:48 10° WNW 02:55:01 16° W 02:57:35 12° SW
Cosmos 1606 2.7 02:51:57 10° N 02:55:45 82° E 02:59:32 10° S
STARLINK-25 3.4 02:53:37 13° WSW 02:56:35 62° NNW 03:00:02 10° NE
ATLAS 5 CENTAUR R/B 3.6 02:55:00 10° SSE 02:58:03 21° ESE 03:01:19 10° ENE
Cosmos 2333 4.2 02:52:49 10° SSW 02:58:25 85° ESE 03:04:04 10° NNE
STARLINK-1009 3.6 02:54:54 13° SW 02:58:31 88° NW 03:02:42 10° NE
BREEZE-M R/B 3.3 02:56:31 10° WNW 02:59:40 42° NNE 03:02:01 10° E
ARIANE 5 R/B 2.7 02:55:28 10° N 03:00:22 56° WNW 03:05:14 10° SSW
STARLINK-1015 3.7 02:59:41 12° WSW 03:03:30 81° NW 03:07:40 10° NE
STARLINK-1320 3.3 03:00:44 10° NW 03:03:50 65° NNE 03:06:56 10° ESE
STARLINK-1322 3.3 03:01:05 10° NW 03:04:12 65° NNE 03:07:17 10° ESE
STARLINK-1324 3.3 03:01:24 10° NW 03:04:30 66° NNE 03:07:36 10° ESE
STARLINK-1294 3.3 03:01:42 10° NW 03:04:50 66° NE 03:07:57 10° ESE
CZ-2C R/B 2.8 03:01:12 10° NNE 03:05:00 80° ESE 03:08:51 10° S
STARLINK-1261 3.3 03:02:05 10° NW 03:05:12 67° NNE 03:08:17 10° ESE
CZ-2D R/B 3.6 03:01:12 10° N 03:05:27 65° WNW 03:09:46 10° SSW
STARLINK-1325 3.3 03:02:26 10° NW 03:05:32 67° NNE 03:08:39 10° ESE
Cosmos 1408 Rocket 3.6 03:01:31 10° S 03:05:48 80° E 03:10:07 10° N
STARLINK-1333 3.2 03:02:48 10° NW 03:05:55 68° NE 03:09:00 10° ESE
STARLINK-1334 3.2 03:03:06 10° NW 03:06:12 68° NNE 03:09:18 10° ESE
STARLINK-1326 3.2 03:03:24 10° NW 03:06:31 69° NE 03:09:37 10° ESE
STARLINK-1323 3.2 03:03:48 10° NW 03:06:55 69° NE 03:10:01 10° ESE
STARLINK-1373 4.4 03:03:01 10° NW 03:07:00 55° NNE 03:10:57 10° ESE
STARLINK-1349 3.2 03:04:06 10° NW 03:07:13 70° NE 03:10:18 10° ESE
STARLINK-1336 3.2 03:04:25 10° NW 03:07:32 70° NE 03:10:38 10° ESE
STARLINK-1331 3.2 03:04:48 10° NW 03:07:55 71° NE 03:11:01 10° ESE
STARLINK-24 4.0 03:04:03 10° WSW 03:08:00 56° NNW 03:11:57 10° NE
STARLINK-1344 3.2 03:05:06 10° NW 03:08:13 71° NE 03:11:19 10° ESE
STARLINK-1016 3.7 03:04:27 11° WSW 03:08:29 75° NW 03:12:38 10° NE
STARLINK-1343 3.1 03:05:29 10° NW 03:08:36 72° NE 03:11:42 10° ESE
STARLINK-1346 3.2 03:05:45 10° NW 03:08:54 72° NE 03:12:03 10° ESE
STARLINK-1328 3.1 03:06:12 10° NW 03:09:19 73° NE 03:12:25 10° ESE
STARLINK-1354 3.1 03:06:29 10° NW 03:09:37 73° NE 03:12:43 10° ESE
STARLINK-1347 3.1 03:06:46 10° NW 03:09:53 74° NE 03:13:00 10° ESE
Cosmos 1844 3.7 03:04:17 10° NNW 03:10:05 73° WSW 03:15:49 10° SSE
STARLINK-1357 3.1 03:07:12 10° NW 03:10:20 75° NE 03:13:26 10° ESE
STARLINK-1335 3.1 03:07:29 10° NW 03:10:36 75° NE 03:13:43 10° ESE
STARLINK-1327 3.1 03:07:50 10° NW 03:10:57 76° NE 03:14:03 10° ESE
STARLINK-1340 3.1 03:08:08 10° NW 03:11:15 76° NE 03:14:21 10° ESE
STARLINK-1356 3.0 03:08:31 10° NW 03:11:38 77° NE 03:14:45 10° ESE
STARLINK-1390 4.2 03:07:41 10° NW 03:11:42 59° NNE 03:15:42 10° ESE
STARLINK-1345 3.0 03:08:49 10° NW 03:11:57 77° NE 03:15:03 10° ESE
STARLINK-1355 3.0 03:09:11 10° NW 03:12:18 78° NNE 03:15:25 10° ESE
STARLINK-1321 3.0 03:09:32 10° NW 03:12:39 78° NE 03:15:46 10° ESE
STARLINK-1358 3.0 03:09:55 10° NW 03:13:03 79° NE 03:16:09 10° ESE
STARLINK-1332 3.0 03:10:12 10° NW 03:13:19 80° NNE 03:16:26 10° ESE
STARLINK-1008 3.8 03:09:21 10° WSW 03:13:29 70° NNW 03:17:37 10° NE
STARLINK-1348 3.0 03:10:33 10° NW 03:13:40 80° NE 03:16:47 10° ESE
STARLINK-1330 3.0 03:10:52 10° NW 03:13:59 81° NE 03:17:06 10° ESE
STARLINK-1363 3.0 03:11:12 10° NW 03:14:19 81° NNE 03:17:26 10° ESE
STARLINK-1337 2.9 03:11:34 10° NW 03:14:42 82° NNE 03:17:49 10° ESE
STARLINK-1342 2.9 03:11:53 10° NW 03:15:01 82° NNE 03:18:08 10° SE
STARLINK-1364 2.9 03:12:14 10° NW 03:15:21 83° NE 03:18:28 10° SE
STARLINK-1376 2.9 03:12:34 10° NW 03:15:41 84° NE 03:18:48 10° SE
STARLINK-1360 2.9 03:12:54 10° NW 03:16:02 84° NE 03:19:09 10° SE
Cosmos 1633 3.6 03:12:42 10° SSE 03:16:08 45° E 03:19:37 10° NNE
STARLINK-1361 2.9 03:13:15 10° NW 03:16:23 85° NE 03:19:29 10° SE
STARLINK-1367 2.9 03:13:30 10° NW 03:16:41 86° NE 03:19:49 10° SE
STARLINK-81 4.0 03:13:10 10° WSW 03:16:41 48° NNW 03:20:13 10° NE
CZ-4B R/B 3.3 03:13:57 10° SE 03:16:44 32° ENE 03:19:35 10° N
Cosmos 2322 Rocket 3.8 03:12:33 10° W 03:16:52 22° NW 03:21:13 10° N
STARLINK-1366 2.9 03:13:54 10° NW 03:17:01 86° NNE 03:20:08 10° SE
Meteor 2-3 Rocket 3.8 03:12:04 10° S 03:17:40 86° E 03:23:18 10° N
STARLINK-1365 4.0 03:13:40 10° NW 03:17:44 66° NNE 03:21:46 10° ESE
Cosmos 1151 Rocket 3.1 03:13:53 10° NNW 03:18:13 61° W 03:22:31 10° S
STARLINK-54 4.1 03:15:01 10° WSW 03:18:27 43° NNW 03:21:56 10° NE
STARLINK-1014 3.9 03:14:23 10° WSW 03:18:28 64° NNW 03:22:34 10° NE
Cosmos 2344 4.1 03:12:19 10° SSW 03:19:41 57° ESE 03:27:17 10° NE
Cosmos 1461 3.8 03:15:03 10° NNW 03:19:43 65° NE 03:24:25 10° SE
STARLINK-77 4.1 03:16:26 10° WSW 03:19:56 45° NNW 03:23:28 10° NE
Cosmos 2151 4.2 03:17:28 10° SW 03:21:08 27° WNW 03:24:49 10° NNW
Resurs 1-4 Rocket 4.4 03:20:45 10° NW 03:21:09 10° NW 03:21:33 10° WNW
Cosmos 923 Rocket 4.3 03:16:05 10° S 03:21:14 69° ESE 03:26:25 10° NNE
deb Chang Zheng 4 4.3 03:17:24 10° NNE 03:21:37 54° E 03:25:47 10° S
H-2A R/B 2.5 03:17:56 10° S 03:22:12 47° W 03:26:33 10° NNW
Lacrosse 5 rocket 1.9 03:18:20 10° SSW 03:22:15 47° SE 03:25:58 10° ENE
STARLINK-1025 4.0 03:19:22 10° WSW 03:23:28 60° NNW 03:27:35 10° NE
Cosmos 1766 Rocket 4.2 03:19:44 10° SW 03:23:46 37° WNW 03:27:49 10° N
STARLINK-52 4.1 03:22:00 10° WNW 03:24:39 24° SW 03:27:18 10° S
STARLINK-79 4.2 03:21:24 10° W 03:24:51 42° NNW 03:28:20 10° NE
